Location: Brienzwiler
(46.7508°N, 8.1014°E)
Time: 15:05:40
(UTC+00:00)

Cosmos 2297 - Pass Details

Date: 05 July 2020
Orbit: 835 x 859 km, 71.0° (Epoch: 10 August)

Event Time Altitude Azimuth Distance (km) Brightness Sun altitude
Rises 22:46:42 0° 333° (NNW) 3,444 8.3 -19.8°
Reaches altitude 10° 22:49:11 10° 335° (NNW) 2,502 7.3 -19.9°
Maximum altitude 22:54:58 81° 63° (ENE) 871 3.7 -20.1°
Enters shadow 22:57:26 36° 146° (SSE) 1,334 4.2 -20.1°
